{"data":{"norad_id":63863,"intl_designator":"2025-093AD","name":"STARLINK-33954","alt_names":[],"object_type":"PAYLOAD","status":"ACTIVE","operator":null,"country":"US","launch_date":"2025-05-07","launch_site_code":"AFETR","launch_vehicle":null,"mission":null,"orbit_class":"UNKNOWN","rcs_meters":null,"size_class":null,"mass_kg":null,"dimensions":null,"purposes":["comms"],"wikipedia_slug":null,"has_3d_model":false,"image_url":null,"decayed_at":null,"tle_current":{"epoch":"2026-05-24T23:01:59.814048Z","epoch_age_seconds":68804,"freshness":"FRESH","line1":"1 63863U 25093AD  26144.95972007  .00007169  00000+0  26973-3 0  9993","line2":"2 63863  42.9999   7.4059 0001312 271.9083  88.1618 15.27587758 59418","mean_motion":15.27587758,"eccentricity":0.0001312,"inclination_deg":42.9999,"raan_deg":7.4059,"arg_perigee_deg":271.9083,"mean_anomaly_deg":88.1618,"bstar":0.00026973,"rev_number":5941,"period_min":94.266269970985,"perigee_km":482.12568132704,"apogee_km":483.92605046305,"semimajor_km":6861.162865895,"source":"CELESTRAK","updated_at":"2026-05-25T13:38:20.167695Z"}}}